Location: Chastannel
(45.1577°N, 3.6311°E)
Time: 00:10:46
(UTC+00:00)

Daily predictions for brighter satellites

Satellite Brightness Start Highest point End
(mag) Time Altitude Azimuth Time Altitude Azimuth Time Altitude Azimuth
Cosmos 2263 Rocket 4.5 01:00:12 10° N 01:03:49 19° NE 01:03:49 19° NE
Resurs 1-4 Rocket 4.3 01:25:15 10° NNE 01:26:56 21° NNE 01:26:56 21° NNE
SL-16 R/B 4.3 01:35:43 22° NNW 01:35:43 22° NNW 01:37:40 10° NNW
CZ-2D R/B 4.2 01:31:49 10° NNE 01:33:36 22° NNE 01:33:36 22° NNE
USA 267 4.5 01:44:55 10° ENE 01:49:37 32° ESE 01:49:37 32° ESE
ATLAS 5 CENTAUR R/B 4.5 01:57:35 13° N 01:57:35 13° N 01:58:47 10° N
ATLAS 2AS CENTAUR R/B 4.4 01:57:21 10° NNW 02:04:04 32° NNE 02:10:19 10° E
SL-4 R/B 4.4 02:21:54 23° E 02:21:54 23° E 02:23:58 10° ENE
ADEOS II 3.3 02:15:10 10° NNE 02:18:19 37° NNE 02:18:19 37° NNE
IDEFIX/ARIANE 42P 3.7 02:17:31 10° NNE 02:22:24 38° E 02:22:24 38° E
USA 234 4.1 02:20:15 10° E 02:26:23 45° NNE 02:30:48 19° NW
Cosmos 1238 Rocket 4.1 02:27:34 10° N 02:33:16 68° N 02:33:16 68° N
Cosmos 1605 Rocket 4.5 02:27:56 10° N 02:34:16 60° ENE 02:37:19 31° SE
Cosmos 2360 Rocket 4.4 02:33:12 13° SE 02:36:24 20° E 02:40:23 10° NE
Cosmos 1535 Rocket 4.5 02:30:21 10° N 02:36:27 82° N 02:36:27 82° N
H-2A R/B 4.3 02:34:06 10° ESE 02:37:41 25° ENE 02:41:19 10° N
Cosmos 1697 Rocket 4.1 02:40:57 28° NNW 02:40:57 28° NNW 02:44:27 10° N
Cosmos 1980 Rocket 2.9 02:47:19 43° NNW 02:47:19 43° NNW 02:51:40 10° NNE
Cosmos 2263 Rocket 3.8 02:43:13 10° NNW 02:45:20 24° NNW 02:45:20 24° NNW
ASTEX 1 3.8 02:47:19 10° N 02:51:25 60° NNE 02:51:25 60° NNE
Cosmos 2322 Rocket 2.8 02:54:20 43° SSE 02:55:36 52° ESE 03:01:07 10° NE
Cosmos 1898 Rocket 3.7 02:52:06 10° NNW 02:57:22 68° ENE 03:02:38 10° SSE
Cosmos 1666 4.1 02:56:09 10° N 02:59:07 36° NE 02:59:07 36° NE
Spot 4 Rocket 4.1 02:55:24 10° NNE 03:00:33 73° ESE 03:01:01 68° SE
Meteor 1-11 Rocket 4.3 02:56:09 10° N 03:01:49 56° ENE 03:07:19 10° SSE
Lacrosse 5 3.3 03:01:39 27° NNW 03:01:57 27° NNW 03:06:15 10° NE
Cosmos 921 Rocket 4.3 03:05:07 32° N 03:05:07 32° N 03:07:33 10° NNE
IRS-1C 4.4 03:00:41 10° N 03:05:14 52° NW 03:05:14 52° NW
Cosmos 1812 4.1 03:08:14 33° N 03:08:14 33° N 03:10:27 10° N
Meteor 2-7 Rocket 4.5 03:06:37 76° W 03:06:37 76° W 03:12:09 10° N
SL-16 R/B 2.2 03:06:39 62° S 03:07:35 78° ESE 03:13:17 10° NNE
Resurs 1-4 Rocket 4.2 03:06:35 10° NNW 03:08:01 14° NW 03:08:01 14° NW
USA 308 4.5 03:12:08 26° NNW 03:12:20 26° N 03:15:57 10° NE
IRIDIUM 104 4.4 03:07:16 10° N 03:12:31 75° E 03:15:23 27° SSE
Cosmos 1727 Rocket 4.2 03:09:26 24° S 03:13:28 71° E 03:19:46 10° NNE
Cosmos 1339 Rocket 4.4 03:12:47 59° SW 03:13:51 70° W 03:20:02 10° N
CZ-2D R/B 4.2 03:13:39 10° NNW 03:14:55 13° NW 03:14:55 13° NW
Cosmos 1937 Rocket 3.6 03:11:44 10° NNW 03:16:54 72° ENE 03:22:01 10° SSE
FALCON 9 DEB 4.4 03:20:10 40° NE 03:20:10 40° NE 03:22:31 10° NE
CZ-4C R/B 3.9 03:20:02 45° NNE 03:20:02 45° NNE 03:22:42 10° N
Cosmos 841 Rocket 4.2 03:18:31 24° SSE 03:21:25 50° ESE 03:26:30 10° NNE
IRIDIUM 114 4.2 03:16:25 10° N 03:21:40 89° E 03:24:29 28° S
Cosmos 1536 3.4 03:20:48 10° N 03:24:50 57° ENE 03:28:50 10° SSE
Cosmos 1763 Rocket 3.4 03:25:16 57° SW 03:26:20 79° WNW 03:31:40 10° NNE
CZ-2D R/B 3.9 03:23:51 10° N 03:27:24 49° NW 03:27:24 49° NW
USA 32 4.1 03:24:48 10° N 03:30:05 77° E 03:35:20 10° S
ARIANE 5 R/B 2.9 03:25:47 10° N 03:30:25 43° WNW 03:30:25 43° WNW
IRIDIUM 103 4.2 03:25:35 10° N 03:30:49 76° W 03:33:37 28° S
NOSS 3-4 (A) 3.9 03:25:05 10° NW 03:32:08 85° NE 03:39:56 10° SE
NOSS 3-4 (C) 3.9 03:25:11 10° NW 03:32:14 84° NE 03:40:02 10° SE
Cosmos 1707 Rocket 3.4 03:32:27 50° S 03:33:33 87° E 03:37:56 10° N
USA 267 3.2 03:27:36 10° NE 03:34:09 78° NW 03:36:57 38° WSW
ADEOS Rocket 3.6 03:31:04 10° SSE 03:37:32 59° ENE 03:43:22 10° N
CZ-4B R/B 3.7 03:37:42 10° SE 03:40:24 25° ENE 03:43:11 10° NNE
Meteor 1-5 Rocket 4.3 03:36:14 10° NNW 03:41:18 44° W 03:42:00 42° WSW
ERS-2 2.8 03:38:00 10° SSE 03:41:34 55° ENE 03:45:10 10° N
Cosmos 540 Rocket 3.6 03:38:54 25° S 03:41:59 76° ESE 03:47:10 10° NNE
MSX 3.8 03:39:52 10° N 03:45:35 63° WNW 03:48:33 29° SW
Cosmos 44 Rocket 3.2 03:44:48 39° SSW 03:46:36 87° SE 03:51:30 10° NE
Cosmos 1733 Rocket 3.1 03:43:43 10° N 03:48:04 77° E 03:52:23 10° SSE
IRIDIUM 106 4.4 03:44:01 10° NNW 03:49:05 52° W 03:51:58 25° SSW
Cosmos 1743 3.9 03:47:03 10° N 03:50:42 43° ENE 03:54:21 10° SSE
Cosmos 990 Rocket 4.4 03:46:11 10° NW 03:50:58 38° WSW 03:55:46 10° S
PAYLOAD A 3.7 03:48:26 10° NNE 03:53:09 90° NE 03:57:13 14° SSW
Landsat 5 3.6 03:50:41 10° S 03:55:06 56° WSW 03:59:29 10° NNW
Cosmos 2333 Rocket 3.8 03:50:35 10° S 03:55:44 35° ESE 04:00:54 10° NE
ATLAS 2AS CENTAUR R/B 2.7 03:48:24 10° NW 03:55:55 85° SW 04:02:47 10° SSE
Cosmos 2173 Rocket 4.0 03:49:57 10° N 03:56:21 88° W 04:02:44 10° S
BREEZE M DEB (TANK) 4.0 03:44:41 10° WNW 03:57:57 47° SW 04:02:09 10° SSE
CZ-2C R/B 3.3 03:55:14 10° N 03:58:47 38° WNW 03:58:54 37° WNW
SL-4 R/B 2.6 03:57:30 35° W 03:59:13 58° NNW 04:03:57 10° ENE
ADEOS II 3.9 03:56:42 10° NNW 03:59:15 14° NW 03:59:15 14° NW
IDEFIX/ARIANE 42P 3.4 03:57:18 10° N 04:01:54 31° WNW 04:03:12 28° W
Cosmos 1570 Rocket 4.0 03:58:30 20° SSW 04:02:15 76° WNW 04:07:39 10° NNE
PSLV R/B 3.3 03:58:15 10° N 04:02:27 77° WNW 04:05:43 16° SSW
BREEZE-M DEB (TANK) 2.9 03:59:36 25° WSW 04:03:31 72° SSE 04:06:34 10° E
USA 276 2.2 04:03:18 39° NW 04:04:21 73° NNE 04:07:34 10° ESE
Cosmos 1862 Rocket 3.4 04:04:02 10° S 04:08:25 82° W 04:12:47 10° N
USA 234 3.2 04:02:36 10° SE 04:09:08 77° SW 04:15:43 10° NW
BREEZE-M DEB (TANK) 3.6 04:08:00 29° WNW 04:09:34 56° N 04:17:32 10° ENE
H-2A R/B 2.6 04:09:22 10° SSW 04:13:27 37° W 04:17:38 10° NNW
CZ-4C R/B 3.6 04:06:33 10° NNW 04:13:33 57° NE 04:21:38 10° ESE
SAR-Lupe-4 4.2 04:11:02 10° SSE 04:14:33 59° ENE 04:18:06 10° N
ALOS 3.1 04:11:43 10° NNE 04:16:19 53° E 04:20:52 10° S
Cosmos 1689 Rocket 4.5 04:14:00 10° SE 04:16:33 27° ENE 04:19:09 10° N
PKM 3.8 04:14:43 17° WNW 04:17:26 63° SW 04:21:23 10° SE
FENGYUN 3A 4.3 04:13:21 10° NNE 04:18:42 59° E 04:24:01 10° S
Cosmos 2360 Rocket 2.2 04:15:02 14° SW 04:19:50 66° WNW 04:25:29 10° NNE
Meteor 1-4 Rocket 4.5 04:21:07 14° NW 04:21:07 14° NW 04:22:32 10° NNW
CZ-2C R/B 2.6 04:19:02 10° N 04:24:05 55° WNW 04:29:07 10° SSW
Cosmos 1975 3.9 04:20:18 10° N 04:24:12 47° ENE 04:28:03 10° SSE
Cosmos 372 Rocket 4.0 04:22:55 10° NNW 04:27:57 57° WSW 04:32:56 10° S
Cosmos 2016 Rocket 3.9 04:22:01 10° NNW 04:28:08 76° W 04:34:12 10° S
Cosmos 1980 Rocket 4.2 04:29:52 10° NW 04:31:37 11° NW 04:33:21 10° NNW
SAR-Lupe-1 4.0 04:30:02 10° SSE 04:33:36 86° WSW 04:37:13 10° NNW
Cosmos 1484 Rocket 2.9 04:29:34 10° NNE 04:33:36 85° ESE 04:37:36 10° SSW
Cosmos 2061 Rocket 4.0 04:28:34 10° NNW 04:34:58 69° W 04:41:20 10° S
ATLAS CENTAUR Rocket 4.4 04:28:24 14° WSW 04:35:14 22° SSW 04:39:25 10° SSE
X-37B 3.0 04:36:50 10° SW 04:36:50 10° SW 04:37:12 10° SSW
Cosmos 1515 3.7 04:33:04 10° S 04:36:51 87° ESE 04:40:40 10° N
Cosmos 1844 Rocket 2.8 04:31:28 10° NW 04:36:57 53° WSW 04:42:26 10° S
Cosmos 2233 Rocket 4.3 04:31:42 10° N 04:37:50 71° E 04:43:58 10° SSE
Cosmos 2322 Rocket 3.2 04:36:12 15° WSW 04:39:55 29° NW 04:44:51 10° N
Cosmos 2278 Rocket 3.7 04:36:32 10° NNW 04:41:50 39° NE 04:47:05 10° ESE
Okean 1 3.4 04:40:54 10° SSW 04:44:53 57° W 04:48:53 10° N
Cosmos 1844 3.7 04:40:19 10° NW 04:45:44 55° WSW 04:51:09 10° S
Lacrosse 5 3.8 04:42:25 10° NW 04:46:19 22° N 04:50:12 10° NE
Meteor 1-31 Rocket 2.7 04:42:38 10° NNE 04:46:30 85° WNW 04:50:21 10° SSW
COSMO-SKYMED 1 3.0 04:42:59 10° SSE 04:47:17 68° ENE 04:51:37 10° N
Cosmos 1725 Rocket 4.0 04:44:42 10° NNW 04:50:47 61° W 04:56:51 10° S
Meteor 2-9 Rocket 4.1 04:46:04 10° NNW 04:51:34 83° W 04:56:54 10° S
Cosmos 1437 Rocket 3.2 04:48:09 10° SW 04:51:43 38° WNW 04:55:22 10° N
SL-16 R/B 3.6 04:48:33 11° W 04:52:22 21° NW 04:56:35 10° N
Cosmos 2298 Rocket 4.2 04:47:38 10° NNW 04:52:47 52° WSW 04:57:54 10° S
deb Chang Zheng 4 3.7 04:49:20 10° N 04:53:29 50° WNW 04:57:35 10° SW
SJ-12 4.3 04:49:41 10° NNE 04:53:50 72° ESE 04:57:58 10° S
Cosmos 1782 Rocket 3.6 04:57:28 10° N 05:01:58 83° W 05:06:25 10° S
Cosmos 1908 Rocket 3.9 04:58:53 10° NNW 05:03:09 44° W 05:07:24 10° SSW
Cosmos 1703 Rocket 3.6 05:00:29 10° SSW 05:04:45 58° W 05:09:04 10° N
Okean 1-7 3.0 05:01:08 10° SSW 05:05:20 62° W 05:09:35 10° N
Cosmos 2219 Rocket 2.2 05:02:02 10° SSW 05:07:42 73° WNW 05:13:25 10° NNE
CZ-4B R/B 2.5 05:06:30 10° N 05:10:07 78° WNW 05:13:42 10° SSW
Intercosmos 25 4.2 05:07:18 10° SW 05:10:14 23° WNW 05:12:53 10° NNW
Cosmos 1125 Rocket 3.6 05:06:49 10° NNW 05:12:00 57° WSW 05:17:06 10° S
